| time (UTC) | temp F | wind direction | speed MPH | gust MPH | rain 1hr in | rain 24hr in | rain mn in | humidity % | barometer mb |
| 20260510142028 | 64 | 210 | 3.0 | 5.0 | 0.00 | 0.00 | 0.00 | 79 | 1015.4 |
| 20260510141524 | 62 | 165 | 1.0 | 1.0 | 0.00 | 0.00 | 0.00 | 82 | 1015.4 |
| 20260510141022 | 62 | 73 | 0.0 | 0.0 | 0.00 | 0.00 | 0.00 | 82 | 1015.5 |
| 20260510140518 | 62 | 146 | 2.0 | 2.0 | 0.00 | 0.00 | 0.00 | 83 | 1015.5 |
| 20260510140017 | 61 | 90 | 1.0 | 2.0 | 0.00 | 0.00 | 0.00 | 85 | 1015.5 |
| 20260510135513 | 60 | 199 | 3.0 | 6.0 | 0.00 | 0.00 | 0.00 | 84 | 1015.2 |
| 20260510135010 | 60 | 25 | 0.0 | 1.0 | 0.00 | 0.00 | 0.00 | 83 | 1015.4 |
| 20260510134507 | 61 | 53 | 1.0 | 2.0 | 0.00 | 0.00 | 0.00 | 86 | 1015.2 |
| 20260510134004 | 61 | 252 | 2.0 | 3.0 | 0.00 | 0.00 | 0.00 | 83 | 1015.5 |
| 20260510133500 | 60 | 84 | 1.0 | 1.0 | 0.00 | 0.00 | 0.00 | 84 | 1015.2 |
| 20260510132955 | 60 | 142 | 1.0 | 2.0 | 0.00 | 0.00 | 0.00 | 86 | 1015.1 |
| 20260510132453 | 60 | 74 | 0.0 | 0.0 | 0.00 | 0.00 | 0.00 | 86 | 1015.5 |
| 20260510131949 | 59 | 109 | 2.0 | 2.0 | 0.00 | 0.00 | 0.00 | 85 | 1015.5 |
| 20260510131448 | 59 | 71 | 1.0 | 2.0 | 0.00 | 0.00 | 0.00 | 88 | 1015.4 |
| 20260510130944 | 59 | 58 | 0.0 | 0.0 | 0.00 | 0.00 | 0.00 | 88 | 1015.4 |
| 20260510130441 | 60 | 106 | 2.0 | 2.0 | 0.00 | 0.00 | 0.00 | 84 | 1015.5 |
| 20260510125938 | 59 | 26 | 0.0 | 0.0 | 0.00 | 0.00 | 0.00 | 89 | 1015.6 |
| 20260510125434 | 59 | 41 | 0.0 | 0.0 | 0.00 | 0.00 | 0.00 | 90 | 1015.6 |
| 20260510124930 | 59 | 36 | 0.0 | 0.0 | 0.00 | 0.00 | 0.00 | 90 | 1015.4 |
| 20260510124427 | 59 | 44 | 1.0 | 1.0 | 0.00 | 0.00 | 0.00 | 90 | 1015.2 |
| 20260510123924 | 58 | 33 | 0.0 | 1.0 | 0.00 | 0.00 | 0.00 | 90 | 1015.1 |
| 20260510123414 | 57 | 197 | 1.0 | 2.0 | 0.00 | 0.00 | 0.00 | 91 | 1015.1 |
| 20260510122911 | 56 | 132 | 3.0 | 5.0 | 0.00 | 0.00 | 0.00 | 90 | 1015.0 |
| 20260510122411 | 56 | 153 | 1.0 | 1.0 | 0.00 | 0.00 | 0.00 | 92 | 1015.1 |
| 20260510121907 | 55 | 155 | 1.0 | 1.0 | 0.00 | 0.00 | 0.00 | 94 | 1014.9 |
| 20260510121405 | 55 | 45 | 0.0 | 0.0 | 0.00 | 0.00 | 0.00 | 96 | 1015.0 |
| 20260510120902 | 55 | 42 | 1.0 | 1.0 | 0.00 | 0.00 | 0.00 | 94 | 1014.8 |
| 20260510120359 | 55 | 45 | 0.0 | 1.0 | 0.00 | 0.00 | 0.00 | 96 | 1015.1 |
| 20260510115855 | 54 | 207 | 0.0 | 0.0 | 0.00 | 0.00 | 0.00 | 96 | 1014.8 |
| 20260510115352 | 54 | 55 | 0.0 | 0.0 | 0.00 | 0.00 | 0.00 | 98 | 1014.9 |
| 20260510114848 | 53 | 69 | 1.0 | 1.0 | 0.00 | 0.00 | 0.00 | 98 | 1014.8 |
| 20260510114346 | 53 | 168 | 4.0 | 5.0 | 0.00 | 0.00 | 0.00 | 97 | 1015.0 |
| 20260510113845 | 53 | 185 | 3.0 | 5.0 | 0.00 | 0.00 | 0.00 | 97 | 1015.0 |
| 20260510113342 | 53 | 179 | 3.0 | 3.0 | 0.00 | 0.00 | 0.00 | 97 | 1015.0 |
| 20260510112839 | 53 | 66 | 1.0 | 2.0 | 0.00 | 0.00 | 0.00 | 97 | 1014.9 |
| 20260510112336 | 53 | 75 | 0.0 | 0.0 | 0.00 | 0.00 | 0.00 | 98 | 1015.2 |
| 20260510111832 | 53 | 195 | 1.0 | 3.0 | 0.00 | 0.00 | 0.00 | 99 | 1015.0 |
| 20260510111329 | 53 | 50 | 1.0 | 1.0 | 0.00 | 0.00 | 0.00 | 99 | 1014.9 |
| 20260510110828 | 53 | 40 | 0.0 | 0.0 | 0.00 | 0.00 | 0.00 | 99 | 1015.1 |
| 20260510110326 | 53 | 30 | 0.0 | 1.0 | 0.00 | 0.00 | 0.00 | 99 | 1015.0 |
| 20260510105822 | 53 | 77 | 0.0 | 0.0 | 0.00 | 0.00 | 0.00 | 99 | 1015.2 |
| 20260510105322 | 53 | 104 | 0.0 | 0.0 | 0.00 | 0.00 | 0.00 | 99 | 1015.0 |
| 20260510104818 | 52 | 163 | 2.0 | 5.0 | 0.00 | 0.00 | 0.00 | 98 | 1014.8 |
| 20260510104316 | 52 | 121 | 1.0 | 1.0 | 0.00 | 0.00 | 0.00 | 99 | 1014.9 |
| 20260510103812 | 52 | 73 | 0.0 | 0.0 | 0.00 | 0.00 | 0.00 | 99 | 1014.8 |
| 20260510103309 | 52 | 200 | 1.0 | 2.0 | 0.00 | 0.00 | 0.00 | 99 | 1014.8 |
| 20260510102804 | 51 | 204 | 2.0 | 2.0 | 0.00 | 0.00 | 0.00 | 99 | 1014.4 |
| 20260510102300 | 51 | 50 | 0.0 | 0.0 | 0.00 | 0.00 | 0.00 | 99 | 1014.4 |
| 20260510101757 | 51 | 200 | 0.0 | 0.0 | 0.00 | 0.00 | 0.00 | 99 | 1014.3 |
| 20260510101256 | 51 | 27 | 0.0 | 0.0 | 0.00 | 0.00 | 0.00 | 99 | 1014.3 |
| 20260510100751 | 51 | 98 | 0.0 | 0.0 | 0.00 | 0.00 | 0.00 | 99 | 1014.0 |
| 20260510100249 | 51 | 97 | 1.0 | 1.0 | 0.00 | 0.00 | 0.00 | 99 | 1014.0 |
| 20260510095744 | 51 | 47 | 0.0 | 0.0 | 0.00 | 0.00 | 0.00 | 99 | 1014.0 |
| 20260510095240 | 51 | 77 | 0.0 | 0.0 | 0.00 | 0.00 | 0.00 | 99 | 1013.9 |
| 20260510094738 | 50 | 56 | 0.0 | 0.0 | 0.00 | 0.00 | 0.00 | 99 | 1013.8 |
| 20260510094234 | 50 | 252 | 1.0 | 1.0 | 0.00 | 0.00 | 0.00 | 99 | 1013.9 |
| 20260510093730 | 50 | 50 | 0.0 | 0.0 | 0.00 | 0.00 | 0.00 | 99 | 1014.0 |
| 20260510093228 | 51 | 199 | 2.0 | 3.0 | 0.00 | 0.00 | 0.00 | 99 | 1014.0 |
| 20260510092724 | 50 | 287 | 0.0 | 0.0 | 0.00 | 0.00 | 0.00 | 99 | 1013.8 |
| 20260510092220 | 50 | 56 | 2.0 | 3.0 | 0.00 | 0.00 | 0.00 | 99 | 1013.7 |
| 20260510091716 | 50 | 48 | 0.0 | 0.0 | 0.00 | 0.00 | 0.00 | 99 | 1013.7 |
| 20260510091212 | 50 | 48 | 0.0 | 0.0 | 0.00 | 0.00 | 0.00 | 99 | 1013.6 |
| 20260510090709 | 51 | 47 | 0.0 | 0.0 | 0.00 | 0.00 | 0.00 | 99 | 1013.7 |
| 20260510090206 | 51 | 48 | 0.0 | 0.0 | 0.00 | 0.00 | 0.00 | 99 | 1013.5 |
| 20260510085701 | 51 | 352 | 0.0 | 0.0 | 0.00 | 0.00 | 0.00 | 99 | 1013.5 |
| 20260510085156 | 51 | 337 | 0.0 | 0.0 | 0.00 | 0.00 | 0.00 | 99 | 1013.2 |
| 20260510084653 | 51 | 340 | 2.0 | 2.0 | 0.00 | 0.00 | 0.00 | 99 | 1013.5 |
| 20260510084149 | 51 | 69 | 1.0 | 1.0 | 0.00 | 0.00 | 0.00 | 99 | 1013.2 |
| 20260510083646 | 51 | 199 | 0.0 | 0.0 | 0.00 | 0.00 | 0.00 | 99 | 1013.3 |
| 20260510083143 | 51 | 69 | 0.0 | 0.0 | 0.00 | 0.00 | 0.00 | 99 | 1013.3 |
| 20260510082639 | 51 | 206 | 5.0 | 7.0 | 0.00 | 0.00 | 0.00 | 99 | 1013.0 |
| 20260510082135 | 51 | 123 | 1.0 | 2.0 | 0.00 | 0.00 | 0.00 | 99 | 1013.2 |
| 20260510081630 | 51 | 198 | 2.0 | 5.0 | 0.00 | 0.00 | 0.00 | 99 | 1013.2 |
| 20260510081126 | 51 | 74 | 1.0 | 2.0 | 0.00 | 0.00 | 0.00 | 99 | 1013.0 |
| 20260510080625 | 51 | 69 | 0.0 | 0.0 | 0.00 | 0.00 | 0.00 | 99 | 1013.5 |
| 20260510080122 | 51 | 191 | 2.0 | 3.0 | 0.00 | 0.00 | 0.00 | 99 | 1013.6 |
| 20260510075620 | 51 | 48 | 1.0 | 1.0 | 0.00 | 0.00 | 0.00 | 99 | 1013.9 |
| 20260510075117 | 50 | 64 | 2.0 | 3.0 | 0.00 | 0.00 | 0.00 | 99 | 1014.1 |
| 20260510074613 | 51 | 48 | 0.0 | 0.0 | 0.00 | 0.00 | 0.00 | 99 | 1014.1 |
| 20260510074109 | 51 | 125 | 0.0 | 0.0 | 0.00 | 0.00 | 0.00 | 99 | 1014.1 |
| 20260510073605 | 51 | 42 | 0.0 | 0.0 | 0.00 | 0.00 | 0.00 | 99 | 1014.5 |
| 20260510073103 | 51 | 87 | 0.0 | 0.0 | 0.00 | 0.00 | 0.00 | 99 | 1014.6 |
| 20260510072559 | 51 | 87 | 0.0 | 0.0 | 0.00 | 0.00 | 0.00 | 99 | 1014.5 |
| 20260510072055 | 51 | 57 | 0.0 | 0.0 | 0.00 | 0.00 | 0.00 | 99 | 1014.6 |
| 20260510071551 | 51 | 47 | 0.0 | 0.0 | 0.00 | 0.00 | 0.00 | 99 | 1014.4 |
| 20260510071049 | 51 | 30 | 0.0 | 0.0 | 0.00 | 0.00 | 0.00 | 99 | 1014.6 |
| 20260510070546 | 51 | 25 | 0.0 | 0.0 | 0.00 | 0.00 | 0.00 | 99 | 1014.7 |
| 20260510070043 | 51 | 269 | 0.0 | 0.0 | 0.00 | 0.00 | 0.00 | 99 | 1014.6 |
| 20260510065539 | 51 | 1 | 0.0 | 0.0 | 0.00 | 0.00 | 0.00 | 99 | 1014.3 |
| 20260510065035 | 51 | 63 | 0.0 | 0.0 | 0.00 | 0.00 | 0.00 | 99 | 1014.2 |
| 20260510064532 | 51 | 39 | 0.0 | 0.0 | 0.00 | 0.00 | 0.00 | 99 | 1013.9 |
| 20260510064028 | 51 | 101 | 1.0 | 1.0 | 0.00 | 0.00 | 0.00 | 99 | 1014.2 |
| 20260510063525 | 50 | 46 | 0.0 | 1.0 | 0.00 | 0.00 | 0.00 | 99 | 1014.0 |
| 20260510063023 | 50 | 76 | 1.0 | 2.0 | 0.00 | 0.00 | 0.00 | 99 | 1013.7 |
| 20260510062518 | 49 | 62 | 0.0 | 0.0 | 0.00 | 0.00 | 0.00 | 99 | 1013.9 |
| 20260510062014 | 49 | 199 | 0.0 | 0.0 | 0.00 | 0.00 | 0.00 | 99 | 1013.7 |
| 20260510061511 | 49 | 55 | 0.0 | 0.0 | 0.00 | 0.00 | 0.00 | 99 | 1013.8 |
| 20260510061007 | 48 | 43 | 0.0 | 0.0 | 0.00 | 0.00 | 0.00 | 99 | 1013.6 |
| 20260510060504 | 48 | 43 | 0.0 | 0.0 | 0.00 | 0.00 | 0.00 | 99 | 1013.7 |
| 20260510060000 | 48 | 42 | 0.0 | 0.0 | 0.00 | 0.00 | 0.00 | 99 | 1013.3 |
| 20260510055456 | 48 | 42 | 0.0 | 0.0 | 0.00 | 0.00 | 0.00 | 99 | 1013.7 |
| 20260510054954 | 48 | 41 | 0.0 | 0.0 | 0.00 | 0.00 | 0.00 | 99 | 1013.8 |
| 20260510054449 | 47 | 41 | 0.0 | 0.0 | 0.00 | 0.00 | 0.00 | 99 | 1013.8 |
| 20260510053945 | 47 | 54 | 0.0 | 0.0 | 0.00 | 0.00 | 0.00 | 99 | 1013.8 |
| 20260510053440 | 47 | 35 | 0.0 | 0.0 | 0.00 | 0.00 | 0.00 | 99 | 1013.9 |
| 20260510052936 | 48 | 35 | 0.0 | 0.0 | 0.00 | 0.00 | 0.00 | 99 | 1013.8 |
| 20260510052432 | 48 | 27 | 0.0 | 0.0 | 0.00 | 0.00 | 0.00 | 99 | 1014.0 |
| 20260510051929 | 47 | 27 | 0.0 | 0.0 | 0.00 | 0.00 | 0.00 | 99 | 1013.9 |
| 20260510051425 | 47 | 39 | 0.0 | 0.0 | 0.00 | 0.00 | 0.00 | 99 | 1014.3 |
| 20260510050922 | 46 | 50 | 0.0 | 0.0 | 0.00 | 0.00 | 0.00 | 99 | 1013.8 |
| 20260510050418 | 47 | 41 | 0.0 | 0.0 | 0.00 | 0.00 | 0.00 | 99 | 1014.0 |
| 20260510045916 | 48 | 50 | 0.0 | 0.0 | 0.00 | 0.00 | 0.00 | 99 | 1013.7 |
| 20260510045413 | 47 | 50 | 0.0 | 0.0 | 0.00 | 0.00 | 0.00 | 99 | 1013.7 |
| 20260510044909 | 48 | 50 | 0.0 | 0.0 | 0.00 | 0.00 | 0.00 | 99 | 1013.7 |
| 20260510044407 | 48 | 50 | 0.0 | 0.0 | 0.00 | 0.00 | 0.00 | 99 | 1013.8 |
| 20260510043903 | 48 | 50 | 0.0 | 0.0 | 0.00 | 0.00 | 0.00 | 99 | 1013.7 |
| 20260510043359 | 49 | 50 | 0.0 | 0.0 | 0.00 | 0.00 | 0.00 | 99 | 1013.6 |
| 20260510042857 | 49 | 50 | 0.0 | 0.0 | 0.00 | 0.00 | 0.00 | 99 | 1013.6 |
| 20260510042353 | 49 | 50 | 0.0 | 0.0 | 0.00 | 0.00 | 0.00 | 99 | 1013.7 |
| 20260510041849 | 49 | 14 | 0.0 | 0.0 | 0.00 | 0.00 | 0.00 | 99 | 1013.6 |
| 20260510041346 | 49 | 47 | 0.0 | 0.0 | 0.00 | 0.00 | 0.00 | 99 | 1013.8 |
| 20260510040844 | 49 | 48 | 0.0 | 0.0 | 0.00 | 0.00 | 0.00 | 99 | 1013.8 |
| 20260510040341 | 50 | 212 | 0.0 | 0.0 | 0.00 | 0.00 | 0.00 | 99 | 1013.8 |
| 20260510035836 | 50 | 212 | 1.0 | 2.0 | 0.00 | 0.47 | 0.47 | 99 | 1013.7 |
| 20260510035332 | 50 | 42 | 0.0 | 0.0 | 0.00 | 0.47 | 0.47 | 99 | 1013.9 |
| 20260510034828 | 50 | 39 | 0.0 | 0.0 | 0.00 | 0.47 | 0.47 | 99 | 1014.0 |
| 20260510034326 | 50 | 51 | 0.0 | 0.0 | 0.00 | 0.47 | 0.47 | 99 | 1013.8 |
| 20260510033822 | 50 | 43 | 0.0 | 0.0 | 0.00 | 0.47 | 0.47 | 99 | 1013.5 |
| 20260510033319 | 50 | 55 | 1.0 | 1.0 | 0.00 | 0.47 | 0.47 | 99 | 1013.7 |
| 20260510032816 | 50 | 50 | 0.0 | 0.0 | 0.00 | 0.47 | 0.47 | 99 | 1013.9 |
| 20260510032312 | 50 | 44 | 0.0 | 0.0 | 0.00 | 0.47 | 0.47 | 99 | 1013.7 |
| 20260510031808 | 50 | 48 | 0.0 | 0.0 | 0.00 | 0.47 | 0.47 | 99 | 1013.6 |
| 20260510031303 | 50 | 31 | 0.0 | 0.0 | 0.00 | 0.47 | 0.47 | 99 | 1013.3 |
| 20260510030757 | 51 | 65 | 0.0 | 0.0 | 0.00 | 0.47 | 0.47 | 98 | 1013.5 |
| 20260510030254 | 51 | 57 | 1.0 | 1.0 | 0.00 | 0.47 | 0.47 | 98 | 1013.5 |
| 20260510025752 | 51 | 101 | 2.0 | 2.0 | 0.00 | 0.47 | 0.47 | 99 | 1013.6 |
| 20260510025249 | 52 | 27 | 0.0 | 0.0 | 0.00 | 0.47 | 0.47 | 99 | 1014.1 |
| 20260510024745 | 51 | 15 | 0.0 | 0.0 | 0.00 | 0.47 | 0.47 | 98 | 1013.9 |
| 20260510024242 | 51 | 55 | 0.0 | 0.0 | 0.00 | 0.47 | 0.47 | 98 | 1013.7 |
| 20260510023738 | 52 | 52 | 0.0 | 0.0 | 0.00 | 0.47 | 0.47 | 97 | 1013.7 |
| 20260510023230 | 52 | 53 | 0.0 | 0.0 | 0.00 | 0.47 | 0.47 | 96 | 1013.8 |
| 20260510022726 | 52 | 78 | 0.0 | 1.0 | 0.00 | 0.47 | 0.47 | 99 | 1014.0 |
| 20260510022226 | 51 | 39 | 0.0 | 0.0 | 0.00 | 0.47 | 0.47 | 99 | 1013.6 |
| 20260510021721 | 51 | 35 | 0.0 | 0.0 | 0.00 | 0.47 | 0.47 | 99 | 1013.9 |
| 20260510021219 | 51 | 41 | 0.0 | 0.0 | 0.00 | 0.47 | 0.47 | 99 | 1013.9 |
| 20260510020714 | 51 | 42 | 0.0 | 0.0 | 0.00 | 0.47 | 0.47 | 99 | 1013.8 |
| 20260510020209 | 51 | 51 | 0.0 | 0.0 | 0.00 | 0.47 | 0.47 | 99 | 1014.1 |
| 20260510015705 | 51 | 58 | 0.0 | 0.0 | 0.00 | 0.47 | 0.47 | 99 | 1013.8 |
| 20260510015201 | 51 | 56 | 0.0 | 0.0 | 0.00 | 0.47 | 0.47 | 99 | 1013.8 |
| 20260510014702 | 51 | 51 | 0.0 | 0.0 | 0.00 | 0.47 | 0.47 | 98 | 1013.6 |
| 20260510014159 | 51 | 44 | 1.0 | 1.0 | 0.00 | 0.47 | 0.47 | 98 | 1013.6 |
| 20260510013654 | 51 | 52 | 1.0 | 1.0 | 0.00 | 0.47 | 0.47 | 98 | 1013.7 |
| 20260510013150 | 51 | 47 | 0.0 | 1.0 | 0.00 | 0.47 | 0.47 | 98 | 1013.8 |
| 20260510012650 | 51 | 67 | 0.0 | 1.0 | 0.00 | 0.47 | 0.47 | 98 | 1013.8 |
| 20260510012146 | 51 | 38 | 0.0 | 0.0 | 0.00 | 0.47 | 0.47 | 98 | 1013.6 |
| 20260510011641 | 51 | 45 | 0.0 | 0.0 | 0.00 | 0.47 | 0.47 | 98 | 1013.6 |
| 20260510011137 | 51 | 47 | 1.0 | 1.0 | 0.00 | 0.47 | 0.47 | 98 | 1013.3 |
| 20260510010633 | 51 | 45 | 0.0 | 0.0 | 0.00 | 0.47 | 0.47 | 99 | 1013.5 |
| 20260510010130 | 51 | 56 | 0.0 | 0.0 | 0.00 | 0.47 | 0.47 | 99 | 1013.8 |
| 20260510005625 | 51 | 45 | 0.0 | 0.0 | 0.00 | 0.47 | 0.47 | 99 | 1013.6 |
| 20260510005123 | 51 | 92 | 1.0 | 1.0 | 0.00 | 0.47 | 0.47 | 99 | 1013.8 |
| 20260510004621 | 50 | 46 | 0.0 | 1.0 | 0.00 | 0.47 | 0.47 | 99 | 1013.6 |
| 20260510004119 | 50 | 25 | 0.0 | 0.0 | 0.00 | 0.47 | 0.47 | 99 | 1013.6 |
| 20260510003616 | 50 | 223 | 5.0 | 6.0 | 0.00 | 0.47 | 0.47 | 99 | 1013.3 |
| 20260510003112 | 50 | 46 | 0.0 | 0.0 | 0.00 | 0.47 | 0.47 | 99 | 1013.1 |
| 20260510002606 | 50 | 46 | 1.0 | 1.0 | 0.00 | 0.47 | 0.47 | 99 | 1013.3 |
| 20260510002103 | 50 | 74 | 0.0 | 0.0 | 0.00 | 0.47 | 0.47 | 99 | 1013.2 |
| 20260510001601 | 50 | 69 | 0.0 | 0.0 | 0.00 | 0.47 | 0.47 | 99 | 1012.9 |
| 20260510001100 | 50 | 38 | 0.0 | 0.0 | 0.00 | 0.47 | 0.47 | 99 | 1013.0 |
| 20260510000600 | 51 | 38 | 0.0 | 0.0 | 0.00 | 0.47 | 0.47 | 99 | 1013.2 |
| 20260510000056 | 51 | 185 | 1.0 | 1.0 | 0.00 | 0.47 | 0.47 | 98 | 1012.9 |
| 20260509235553 | 52 | 47 | 0.0 | 0.0 | 0.00 | 0.47 | 0.47 | 97 | 1012.7 |
| 20260509235050 | 52 | 43 | 0.0 | 0.0 | 0.00 | 0.47 | 0.47 | 97 | 1012.6 |
| 20260509234546 | 52 | 356 | 1.0 | 1.0 | 0.00 | 0.47 | 0.47 | 95 | 1012.5 |
| 20260509234044 | 53 | 50 | 1.0 | 1.0 | 0.00 | 0.47 | 0.47 | 96 | 1012.5 |
| 20260509233541 | 53 | 49 | 0.0 | 0.0 | 0.00 | 0.47 | 0.47 | 96 | 1012.5 |
| 20260509233039 | 53 | 38 | 0.0 | 0.0 | 0.00 | 0.47 | 0.47 | 96 | 1012.5 |
| 20260509232535 | 53 | 48 | 0.0 | 0.0 | 0.00 | 0.47 | 0.47 | 94 | 1012.4 |
| 20260509232032 | 53 | 222 | 3.0 | 3.0 | 0.00 | 0.47 | 0.47 | 94 | 1012.7 |
| 20260509231528 | 53 | 51 | 0.0 | 0.0 | 0.00 | 0.47 | 0.47 | 95 | 1012.3 |
| 20260509231026 | 54 | 281 | 3.0 | 5.0 | 0.00 | 0.47 | 0.47 | 93 | 1012.4 |
| 20260509230523 | 54 | 190 | 1.0 | 2.0 | 0.00 | 0.47 | 0.47 | 93 | 1012.4 |
| 20260509230020 | 54 | 225 | 3.0 | 5.0 | 0.00 | 0.47 | 0.47 | 93 | 1012.5 |
| 20260509225515 | 54 | 58 | 0.0 | 1.0 | 0.00 | 0.47 | 0.47 | 95 | 1012.5 |
| 20260509225011 | 54 | 199 | 3.0 | 6.0 | 0.00 | 0.47 | 0.47 | 94 | 1012.5 |
| 20260509224507 | 54 | 89 | 2.0 | 2.0 | 0.00 | 0.47 | 0.47 | 93 | 1012.4 |
| 20260509224004 | 54 | 43 | 1.0 | 1.0 | 0.00 | 0.47 | 0.47 | 93 | 1012.8 |
| 20260509223500 | 55 | 81 | 1.0 | 1.0 | 0.00 | 0.47 | 0.47 | 94 | 1012.8 |
| 20260509222958 | 54 | 33 | 0.0 | 1.0 | 0.00 | 0.47 | 0.47 | 93 | 1012.9 |
| 20260509222453 | 55 | 185 | 2.0 | 3.0 | 0.00 | 0.47 | 0.47 | 94 | 1013.0 |
| 20260509221949 | 54 | 209 | 1.0 | 2.0 | 0.00 | 0.47 | 0.47 | 94 | 1012.7 |
| 20260509221446 | 54 | 58 | 0.0 | 0.0 | 0.00 | 0.47 | 0.47 | 94 | 1012.6 |
| 20260509220941 | 54 | 195 | 0.0 | 1.0 | 0.00 | 0.47 | 0.47 | 95 | 1012.5 |
| 20260509220438 | 54 | 43 | 0.0 | 0.0 | 0.00 | 0.47 | 0.47 | 97 | 1012.3 |
| 20260509215934 | 54 | 48 | 1.0 | 2.0 | 0.00 | 0.47 | 0.47 | 96 | 1012.6 |
| 20260509215429 | 54 | 207 | 2.0 | 2.0 | 0.00 | 0.47 | 0.47 | 97 | 1012.7 |
| 20260509214927 | 54 | 37 | 1.0 | 1.0 | 0.00 | 0.47 | 0.47 | 97 | 1012.7 |
| 20260509214424 | 54 | 65 | 0.0 | 1.0 | 0.00 | 0.47 | 0.47 | 96 | 1012.7 |
| 20260509213921 | 54 | 176 | 3.0 | 3.0 | 0.00 | 0.47 | 0.47 | 95 | 1012.8 |
| 20260509213416 | 54 | 78 | 2.0 | 3.0 | 0.00 | 0.47 | 0.47 | 96 | 1012.8 |
| 20260509212914 | 54 | 50 | 1.0 | 1.0 | 0.00 | 0.47 | 0.47 | 97 | 1012.9 |
| 20260509212412 | 54 | 123 | 0.0 | 0.0 | 0.00 | 0.47 | 0.47 | 97 | 1012.9 |
| 20260509211908 | 54 | 72 | 1.0 | 2.0 | 0.00 | 0.47 | 0.47 | 95 | 1012.8 |
| 20260509211403 | 54 | 38 | 0.0 | 0.0 | 0.00 | 0.47 | 0.47 | 97 | 1012.9 |
| 20260509210900 | 54 | 47 | 0.0 | 1.0 | 0.00 | 0.47 | 0.47 | 99 | 1012.8 |
| 20260509210357 | 54 | 60 | 1.0 | 2.0 | 0.00 | 0.47 | 0.47 | 97 | 1013.1 |
| 20260509205852 | 54 | 213 | 3.0 | 3.0 | 0.00 | 0.47 | 0.47 | 97 | 1013.1 |
| 20260509205346 | 53 | 253 | 0.0 | 1.0 | 0.00 | 0.47 | 0.47 | 97 | 1013.2 |
| 20260509204844 | 53 | 205 | 5.0 | 7.0 | 0.00 | 0.47 | 0.47 | 97 | 1013.3 |
| 20260509204340 | 53 | 48 | 0.0 | 0.0 | 0.00 | 0.47 | 0.47 | 98 | 1013.2 |
| 20260509203836 | 54 | 30 | 1.0 | 2.0 | 0.00 | 0.47 | 0.47 | 98 | 1013.4 |
| 20260509203333 | 53 | 359 | 1.0 | 2.0 | 0.00 | 0.47 | 0.47 | 96 | 1013.6 |
| 20260509202829 | 53 | 14 | 1.0 | 2.0 | 0.00 | 0.47 | 0.47 | 97 | 1013.5 |
| 20260509202326 | 54 | 158 | 3.0 | 3.0 | 0.00 | 0.47 | 0.47 | 97 | 1013.5 |
| 20260509201825 | 54 | 52 | 2.0 | 2.0 | 0.00 | 0.47 | 0.47 | 99 | 1013.7 |
| 20260509201322 | 54 | 56 | 1.0 | 2.0 | 0.00 | 0.47 | 0.47 | 99 | 1013.5 |
| 20260509200818 | 53 | 50 | 0.0 | 1.0 | 0.00 | 0.47 | 0.47 | 99 | 1013.6 |
| 20260509200314 | 53 | 41 | 2.0 | 2.0 | 0.00 | 0.47 | 0.47 | 99 | 1013.6 |
| 20260509195811 | 53 | 52 | 0.0 | 0.0 | 0.00 | 0.47 | 0.47 | 99 | 1013.7 |
| 20260509195306 | 53 | 48 | 0.0 | 1.0 | 0.00 | 0.47 | 0.47 | 99 | 1013.7 |
| 20260509194805 | 53 | 73 | 0.0 | 0.0 | 0.00 | 0.47 | 0.47 | 99 | 1013.9 |
| 20260509194301 | 53 | 46 | 0.0 | 0.0 | 0.05 | 0.47 | 0.47 | 99 | 1013.9 |
| 20260509193758 | 52 | 63 | 0.0 | 0.0 | 0.12 | 0.47 | 0.47 | 99 | 1014.2 |
| 20260509193258 | 52 | 6 | 2.0 | 2.0 | 0.14 | 0.46 | 0.46 | 99 | 1014.2 |
| 20260509192755 | 53 | 201 | 3.0 | 3.0 | 0.12 | 0.45 | 0.45 | 99 | 1013.9 |
| 20260509192250 | 53 | 43 | 0.0 | 0.0 | 0.12 | 0.44 | 0.44 | 99 | 1014.1 |
| 20260509191745 | 53 | 18 | 0.0 | 0.0 | 0.12 | 0.43 | 0.43 | 99 | 1014.0 |
| 20260509191242 | 53 | 47 | 0.0 | 0.0 | 0.05 | 0.42 | 0.42 | 99 | 1014.1 |
| 20260509190738 | 52 | 44 | 1.0 | 1.0 | 0.07 | 0.41 | 0.41 | 99 | 1014.0 |
| 20260509190235 | 53 | 45 | 0.0 | 0.0 | 0.12 | 0.41 | 0.41 | 99 | 1014.0 |
| 20260509185733 | 53 | 46 | 0.0 | 0.0 | 0.05 | 0.40 | 0.40 | 99 | 1014.2 |
| 20260509185229 | 53 | 233 | 0.0 | 1.0 | 0.07 | 0.39 | 0.39 | 99 | 1014.1 |
| 20260509184727 | 53 | 59 | 0.0 | 0.0 | 0.07 | 0.39 | 0.39 | 99 | 1014.1 |
| 20260509184224 | 53 | 48 | 0.0 | 0.0 | 0.05 | 0.38 | 0.38 | 99 | 1014.4 |
| 20260509183720 | 52 | 334 | 0.0 | 0.0 | 0.12 | 0.38 | 0.38 | 99 | 1014.4 |
| 20260509183215 | 53 | 47 | 0.0 | 0.0 | 0.12 | 0.37 | 0.37 | 99 | 1014.3 |
| 20260509182711 | 52 | 36 | 0.0 | 0.0 | 0.05 | 0.36 | 0.36 | 99 | 1014.3 |
| 20260509182209 | 52 | 84 | 1.0 | 1.0 | 0.00 | 0.35 | 0.35 | 99 | 1014.2 |
| 20260509181706 | 53 | 95 | 2.0 | 3.0 | 0.00 | 0.35 | 0.35 | 99 | 1013.8 |
| 20260509181204 | 53 | 167 | 2.0 | 2.0 | 0.00 | 0.35 | 0.35 | 99 | 1014.1 |
| 20260509180700 | 53 | 193 | 2.0 | 2.0 | 0.07 | 0.35 | 0.35 | 99 | 1014.2 |
| 20260509180156 | 52 | 195 | 2.0 | 2.0 | 0.07 | 0.35 | 0.35 | 99 | 1014.3 |
| 20260509175653 | 52 | 79 | 1.0 | 1.0 | 0.00 | 0.34 | 0.34 | 99 | 1014.1 |
| 20260509175150 | 52 | 136 | 2.0 | 2.0 | 0.05 | 0.34 | 0.34 | 99 | 1014.0 |
| 20260509174645 | 52 | 161 | 0.0 | 0.0 | 0.05 | 0.34 | 0.34 | 99 | 1014.0 |
| 20260509174140 | 52 | 164 | 0.0 | 0.0 | 0.07 | 0.33 | 0.33 | 99 | 1014.3 |
| 20260509173636 | 52 | 39 | 0.0 | 0.0 | 0.07 | 0.33 | 0.33 | 99 | 1014.1 |
| 20260509173132 | 52 | 193 | 3.0 | 5.0 | 0.00 | 0.32 | 0.32 | 99 | 1014.4 |
| 20260509172629 | 52 | 46 | 0.0 | 0.0 | 0.07 | 0.32 | 0.32 | 99 | 1014.4 |
| 20260509172125 | 51 | 164 | 0.0 | 0.0 | 0.07 | 0.32 | 0.32 | 99 | 1014.4 |
| 20260509171621 | 51 | 190 | 0.0 | 0.0 | 0.00 | 0.31 | 0.31 | 99 | 1014.7 |
| 20260509171117 | 51 | 191 | 0.0 | 0.0 | 0.05 | 0.31 | 0.31 | 99 | 1014.7 |
| 20260509170614 | 51 | 172 | 0.0 | 0.0 | 0.05 | 0.31 | 0.31 | 99 | 1014.8 |
| 20260509170110 | 51 | 179 | 0.0 | 1.0 | 0.00 | 0.30 | 0.30 | 99 | 1014.6 |
| 20260509165608 | 51 | 123 | 0.0 | 0.0 | 0.07 | 0.30 | 0.30 | 99 | 1015.1 |
| 20260509165104 | 51 | 137 | 0.0 | 0.0 | 0.07 | 0.30 | 0.30 | 99 | 1014.8 |
| 20260509164600 | 51 | 44 | 0.0 | 0.0 | 0.00 | 0.29 | 0.29 | 99 | 1015.0 |
| 20260509164056 | 51 | 196 | 0.0 | 1.0 | 0.00 | 0.29 | 0.29 | 98 | 1015.1 |
| 20260509163554 | 51 | 204 | 0.0 | 1.0 | 0.05 | 0.29 | 0.29 | 98 | 1015.0 |
| 20260509163055 | 51 | 183 | 0.0 | 0.0 | 0.05 | 0.29 | 0.29 | 99 | 1015.2 |
| 20260509162552 | 51 | 28 | 0.0 | 0.0 | 0.00 | 0.28 | 0.28 | 99 | 1015.4 |
| 20260509162048 | 51 | 206 | 0.0 | 0.0 | 0.00 | 0.28 | 0.28 | 98 | 1015.1 |
| 20260509161544 | 50 | 206 | 0.0 | 0.0 | 0.00 | 0.28 | 0.28 | 97 | 1015.4 |
| 20260509161039 | 51 | 205 | 0.0 | 0.0 | 0.07 | 0.28 | 0.28 | 96 | 1015.5 |
| 20260509160535 | 51 | 212 | 2.0 | 2.0 | 0.07 | 0.28 | 0.28 | 96 | 1015.4 |
| 20260509160031 | 51 | 10 | 0.0 | 0.0 | 0.00 | 0.27 | 0.27 | 98 | 1015.6 |
| 20260509155527 | 50 | 10 | 0.0 | 0.0 | 0.00 | 0.27 | 0.27 | 97 | 1015.6 |
| 20260509155023 | 50 | 327 | 0.0 | 0.0 | 0.00 | 0.27 | 0.27 | 97 | 1015.7 |
| 20260509154520 | 50 | 337 | 0.0 | 0.0 | 0.00 | 0.27 | 0.27 | 97 | 1015.7 |
| 20260509154018 | 50 | 312 | 0.0 | 0.0 | 0.00 | 0.27 | 0.27 | 97 | 1015.8 |
| 20260509153514 | 49 | 339 | 0.0 | 1.0 | 0.05 | 0.27 | 0.27 | 97 | 1015.7 |
| 20260509153011 | 49 | 83 | 0.0 | 0.0 | 0.05 | 0.27 | 0.27 | 98 | 1015.7 |
| 20260509152507 | 50 | 338 | 0.0 | 0.0 | 0.00 | 0.26 | 0.26 | 99 | 1015.8 |
| 20260509152004 | 49 | 338 | 0.0 | 0.0 | 0.00 | 0.26 | 0.26 | 98 | 1016.0 |
| 20260509151500 | 49 | 358 | 0.0 | 0.0 | 0.00 | 0.26 | 0.26 | 98 | 1016.1 |
| 20260509150959 | 49 | 359 | 0.0 | 0.0 | 0.00 | 0.26 | 0.26 | 98 | 1016.1 |
| 20260509150455 | 48 | 8 | 0.0 | 0.0 | 0.07 | 0.26 | 0.26 | 98 | 1016.4 |
| 20260509145954 | 48 | 349 | 0.0 | 0.0 | 0.07 | 0.26 | 0.26 | 98 | 1015.8 |
| 20260509145449 | 48 | 350 | 0.0 | 0.0 | 0.00 | 0.25 | 0.25 | 98 | 1016.2 |
| 20260509144944 | 48 | 350 | 0.0 | 0.0 | 0.00 | 0.25 | 0.25 | 99 | 1016.0 |
| 20260509144441 | 48 | 355 | 0.0 | 0.0 | 0.05 | 0.25 | 0.25 | 99 | 1016.3 |
| 20260509143938 | 48 | 354 | 0.0 | 0.0 | 0.05 | 0.25 | 0.25 | 99 | 1016.2 |
| 20260509143436 | 48 | 353 | 0.0 | 0.0 | 0.00 | 0.24 | 0.24 | 99 | 1016.4 |
| 20260509142932 | 48 | 353 | 0.0 | 0.0 | 0.00 | 0.24 | 0.24 | 99 | 1016.1 |